| time (UTC) | temp C | wind direction | speed KPH | gust KPH | rain 1hr cm | rain 24hr cm | rain mn cm | humidity % | barometer mb |
| 20260505062344 | 21 | 269 | 8.0 | 12.9 | 0.00 | 0.00 | 0.00 | 32 | 1008.7 |
| 20260505060844 | 22 | 302 | 4.8 | 12.9 | 0.00 | 0.00 | 0.00 | 31 | 1008.9 |
| 20260505055346 | 21 | 271 | 6.4 | 12.9 | 0.00 | 0.00 | 0.00 | 35 | 1009.0 |
| 20260505053846 | 21 | 253 | 8.0 | 14.5 | 0.00 | 0.00 | 0.00 | 37 | 1008.9 |
| 20260505052346 | 20 | 271 | 6.4 | 11.3 | 0.00 | 0.00 | 0.00 | 41 | 1009.2 |
| 20260505050846 | 20 | 262 | 8.0 | 14.5 | 0.00 | 0.00 | 0.00 | 44 | 1009.5 |
| 20260505040844 | 20 | 275 | 8.0 | 14.5 | 0.00 | 0.00 | 0.00 | 41 | 1010.0 |
| 20260505035345 | 19 | 274 | 11.3 | 16.1 | 0.00 | 0.00 | 0.00 | 43 | 1010.2 |
| 20260505033845 | 20 | 279 | 8.0 | 14.5 | 0.00 | 0.00 | 0.00 | 44 | 1010.3 |
| 20260505032345 | 20 | 282 | 8.0 | 14.5 | 0.00 | 0.00 | 0.00 | 41 | 1010.3 |
| 20260505030845 | 21 | 311 | 6.4 | 12.9 | 0.00 | 0.00 | 0.00 | 40 | 1010.5 |
| 20260505025345 | 20 | 288 | 6.4 | 11.3 | 0.00 | 0.00 | 0.00 | 35 | 1010.6 |
| 20260505023845 | 20 | 286 | 6.4 | 9.7 | 0.00 | 0.05 | 0.00 | 35 | 1010.8 |
| 20260505022344 | 20 | 288 | 6.4 | 14.5 | 0.00 | 0.05 | 0.00 | 36 | 1010.9 |
| 20260505020844 | 20 | 301 | 6.4 | 9.7 | 0.00 | 0.05 | 0.00 | 41 | 1010.9 |
| 20260505015344 | 19 | 286 | 6.4 | 11.3 | 0.00 | 0.05 | 0.00 | 42 | 1011.0 |
| 20260505013844 | 19 | 288 | 6.4 | 11.3 | 0.00 | 0.05 | 0.00 | 42 | 1011.3 |
| 20260505012346 | 19 | 295 | 4.8 | 11.3 | 0.00 | 0.05 | 0.00 | 41 | 1011.2 |
| 20260505010846 | 18 | 264 | 6.4 | 9.7 | 0.00 | 0.05 | 0.00 | 42 | 1011.2 |
| 20260505005346 | 18 | 272 | 6.4 | 9.7 | 0.00 | 0.05 | 0.00 | 40 | 1011.2 |
| 20260505003846 | 18 | 254 | 4.8 | 9.7 | 0.00 | 0.05 | 0.00 | 38 | 1011.2 |
| 20260505002345 | 18 | 251 | 3.2 | 8.0 | 0.00 | 0.05 | 0.00 | 34 | 1011.2 |
| 20260505000845 | 19 | 238 | 1.6 | 4.8 | 0.00 | 0.05 | 0.00 | 32 | 1011.1 |
| 20260504235345 | 18 | 233 | 1.6 | 4.8 | 0.00 | 0.20 | 0.00 | 32 | 1011.2 |
| 20260504233845 | 18 | 128 | 1.6 | 4.8 | 0.00 | 0.20 | 0.00 | 32 | 1011.2 |
| 20260504232345 | 18 | 86 | 1.6 | 4.8 | 0.00 | 0.20 | 0.00 | 36 | 1011.3 |
| 20260504230845 | 17 | 115 | 1.6 | 6.4 | 0.00 | 0.20 | 0.00 | 41 | 1011.4 |
| 20260504225345 | 16 | 102 | 1.6 | 6.4 | 0.00 | 0.20 | 0.00 | 43 | 1011.2 |
| 20260504223844 | 15 | 115 | 3.2 | 4.8 | 0.00 | 0.20 | 0.00 | 48 | 1011.3 |
| 20260504222344 | 14 | 121 | 1.6 | 4.8 | 0.00 | 0.20 | 0.00 | 51 | 1011.2 |
| 20260504220844 | 13 | 89 | 4.8 | 8.0 | 0.00 | 0.20 | 0.00 | 54 | 1011.2 |
| 20260504215344 | 12 | 104 | 4.8 | 6.4 | 0.00 | 0.20 | 0.00 | 58 | 1011.0 |
| 20260504213844 | 11 | 101 | 4.8 | 9.7 | 0.00 | 0.20 | 0.00 | 65 | 1011.0 |
| 20260504212344 | 11 | 112 | 3.2 | 6.4 | 0.00 | 0.20 | 0.00 | 69 | 1010.9 |
| 20260504210846 | 11 | 121 | 3.2 | 8.0 | 0.00 | 0.20 | 0.00 | 70 | 1010.8 |
| 20260504205346 | 10 | 104 | 3.2 | 6.4 | 0.00 | 0.20 | 0.00 | 71 | 1010.3 |
| 20260504203846 | 10 | 104 | 1.6 | 4.8 | 0.00 | 0.20 | 0.00 | 72 | 1010.5 |
| 20260504202346 | 10 | 110 | 1.6 | 4.8 | 0.00 | 0.20 | 0.00 | 71 | 1010.4 |
| 20260504200845 | 10 | 101 | 3.2 | 6.4 | 0.00 | 0.20 | 0.00 | 71 | 1010.1 |
| 20260504195345 | 10 | 98 | 3.2 | 6.4 | 0.00 | 0.20 | 0.00 | 70 | 1010.3 |
| 20260504193845 | 11 | 111 | 3.2 | 6.4 | 0.00 | 0.20 | 0.00 | 70 | 1009.8 |
| 20260504192345 | 11 | 112 | 1.6 | 4.8 | 0.00 | 0.20 | 0.00 | 70 | 1009.6 |
| 20260504190845 | 11 | 113 | 1.6 | 4.8 | 0.00 | 0.20 | 0.00 | 70 | 1009.6 |
| 20260504185345 | 11 | 99 | 3.2 | 8.0 | 0.00 | 0.20 | 0.00 | 70 | 1009.7 |
| 20260504183845 | 11 | 110 | 1.6 | 4.8 | 0.00 | 0.20 | 0.00 | 70 | 1009.1 |
| 20260504182345 | 11 | 103 | 3.2 | 8.0 | 0.00 | 0.20 | 0.00 | 69 | 1008.9 |
| 20260504180845 | 11 | 110 | 3.2 | 8.0 | 0.00 | 0.20 | 0.00 | 68 | 1008.8 |
| 20260504175345 | 11 | 108 | 3.2 | 8.0 | 0.00 | 0.20 | 0.00 | 67 | 1008.8 |
| 20260504173844 | 11 | 104 | 3.2 | 8.0 | 0.00 | 0.20 | 0.00 | 66 | 1008.5 |
| 20260504172344 | 11 | 102 | 4.8 | 9.7 | 0.00 | 0.20 | 0.00 | 65 | 1008.5 |
| 20260504170844 | 11 | 96 | 4.8 | 8.0 | 0.00 | 0.20 | 0.00 | 65 | 1008.4 |
| 20260504150844 | 13 | 113 | 4.8 | 11.3 | 0.00 | 0.20 | 0.00 | 60 | 1008.2 |
| 20260504140845 | 14 | 97 | 3.2 | 9.7 | 0.00 | 0.20 | 0.20 | 53 | 1008.2 |
| 20260504080844 | 19 | 271 | 4.8 | 11.3 | 0.00 | 1.55 | 0.20 | 40 | 1003.6 |